Location: Balaclava NSW 2575, Australia
(34.4510°S, 150.4953°E)
Time: 06:17:08
(UTC+10:00)

Courier 1B Rocket - All Passes

Search period start: 14 June 2021 00:00
Search period end: 24 June 2021 00:00
Orbit: 920 x 1202 km, 28.2° (Epoch: 12 June)

Date Brightness Start Highest point End Pass type
(mag) Time Alt. Az. Time Alt. Az. Time Alt. Az.
14 Jun - 07:42:56 10° NNW 07:48:59 26° NNE 07:55:13 10° ENE daylight
14 Jun - 09:34:47 10° WNW 09:42:10 48° NNE 09:49:38 10° E daylight
14 Jun - 11:28:03 10° WNW 11:35:41 55° N 11:43:11 10° ENE daylight
14 Jun - 13:21:58 10° W 13:29:04 38° NNW 13:35:53 10° NE daylight
14 Jun - 15:17:29 10° WNW 15:21:57 17° NNW 15:26:17 10° N daylight
15 Jun - 06:43:04 10° NNW 06:48:00 19° NNE 06:53:07 10° ENE daylight
15 Jun - 08:33:56 10° NW 08:40:59 41° NNE 08:48:15 10° E daylight
15 Jun - 10:26:50 10° WNW 10:34:26 55° N 10:42:03 10° ENE daylight
15 Jun - 12:20:30 10° W 12:27:55 46° NNW 12:35:09 10° ENE daylight
15 Jun - 14:15:09 10° WNW 14:21:01 24° NNW 14:26:40 10° NNE daylight
16 Jun - 05:44:11 10° N 05:47:07 13° NNE 05:50:06 10° NE visible
16 Jun - 07:33:21 10° NW 07:39:53 33° NNE 07:46:42 10° E daylight
16 Jun - 09:25:45 10° WNW 09:33:11 53° N 09:40:47 10° E daylight
16 Jun - 11:19:10 10° W 11:26:43 51° N 11:34:12 10° ENE daylight
16 Jun - 13:13:18 10° W 13:20:00 31° NNW 13:26:29 10° NE daylight
16 Jun - 15:10:57 10° NW 15:12:47 11° NNW 15:14:35 10° NNW daylight
17 Jun - 06:33:04 10° NNW 06:38:52 26° NNE 06:44:56 10° ENE visible
17 Jun - 08:24:48 10° WNW 08:31:58 48° NNE 08:39:26 10° E daylight
17 Jun - 10:17:56 10° WNW 10:25:28 55° N 10:33:06 10° ENE daylight
17 Jun - 12:11:45 10° W 12:18:53 39° NNW 12:25:55 10° NE daylight
17 Jun - 14:07:11 10° WNW 14:11:52 17° NNW 14:16:26 10° N daylight
18 Jun - 05:33:18 10° NNW 05:37:57 18° NNE 05:42:48 10° ENE visible
18 Jun - 07:24:03 10° NW 07:30:51 41° NNE 07:37:59 10° E daylight
18 Jun - 09:16:49 10° WNW 09:24:14 55° N 09:31:52 10° ENE daylight
18 Jun - 11:10:22 10° W 11:17:43 45° NNW 11:25:06 10° ENE daylight
18 Jun - 13:04:54 10° WNW 13:10:52 24° NNW 13:16:44 10° NNE daylight
19 Jun - 04:34:38 10° N 04:37:07 12° NNE 04:39:38 10° NE visible
19 Jun - 06:23:32 10° NW 06:29:48 33° NNE 06:36:24 10° E visible
19 Jun - 08:15:50 10° WNW 08:23:00 52° N 08:30:33 10° E daylight
19 Jun - 10:09:06 10° W 10:16:30 51° N 10:24:03 10° ENE daylight
19 Jun - 12:03:08 10° W 12:09:48 31° NNW 12:16:27 10° NE daylight
19 Jun - 14:00:34 10° NW 14:02:41 11° NNW 14:04:47 10° NNW daylight
20 Jun - 05:23:22 10° NNW 05:28:50 25° NNE 05:34:37 10° ENE visible
20 Jun - 07:14:58 10° WNW 07:21:51 47° NNE 07:29:09 10° E daylight
20 Jun - 09:07:59 10° WNW 09:15:17 54° N 09:22:52 10° ENE daylight
20 Jun - 11:01:39 10° W 11:08:41 38° NNW 11:15:48 10° NE daylight
20 Jun - 12:56:59 10° WNW 13:01:43 17° NNW 13:06:24 10° N daylight
21 Jun - 04:23:40 10° N 04:27:59 18° NNE 04:32:29 10° ENE visible
21 Jun - 06:14:19 10° NW 06:20:46 40° NNE 06:27:41 10° E visible
21 Jun - 08:06:58 10° WNW 08:14:04 54° N 08:21:36 10° ENE daylight
21 Jun - 10:00:22 10° W 10:07:31 45° NNW 10:14:53 10° ENE daylight
21 Jun - 11:54:48 10° WNW 12:00:41 24° NNW 12:06:36 10° NNE daylight
22 Jun - 03:25:14 10° NNE 03:27:12 11° NNE 03:29:11 10° NE visible
22 Jun - 05:13:52 10° NW 05:19:48 32° NNE 05:26:07 10° E visible
22 Jun - 07:06:04 10° WNW 07:12:55 52° N 07:20:15 10° E daylight
22 Jun - 08:59:12 10° W 09:06:20 50° N 09:13:48 10° ENE daylight
22 Jun - 10:53:06 10° W 10:59:37 30° NNW 11:06:15 10° NE daylight
22 Jun - 12:50:30 10° NW 12:52:33 11° NNW 12:54:36 10° NNW daylight
23 Jun - 04:13:45 10° NNW 04:18:55 24° NNE 04:24:22 10° ENE visible
23 Jun - 06:05:17 10° WNW 06:11:49 46° NNE 06:18:51 10° E visible
23 Jun - 07:58:10 10° WNW 08:05:09 53° N 08:12:35 10° ENE daylight
23 Jun - 09:51:43 10° W 09:58:30 37° NNW 10:05:33 10° NE daylight
23 Jun - 11:46:58 10° WNW 11:51:33 17° NNW 11:56:11 10° N daylight
